Regional Weather Roundup
Issued by NWS

Home | Current Version | Previous Version | Text Only | Print | Product List | Glossary Off
Versions: 1 2 3 4 5 6 7 8 9 10 11 12 13 14 15 16 17 18 19 20 21 22 23 24 25 26 27

000
ASUS45 KPSR 241710
RWRAZ

ARIZONA HOURLY REGIONAL WEATHER ROUNDUP
NATIONAL WEATHER SERVICE PHOENIX AZ
1000 AM MST MON APR 24 2017

NOTE: FAIR INDICATES FEW OR NO CLOUDS BELOW 12,000 FEET WITH NO
SIGNIFICANT WEATHER AND/OR OBSTRUCTIONS TO VISIBILITY.

AZZ001>003-036-241800-
NORTHWEST ARIZONA

CITY           SKY/WX    TMP DP  RH WIND       PRES   REMARKS
BULLHEAD CITY  PTSUNNY   79  23  12 S12G21    29.71S
KINGMAN        PTSUNNY   71  26  18 SW21      29.80R
$$

AZZ004>008-015-016-018-241800-
NORTH CENTRAL ARIZONA

CITY           SKY/WX    TMP DP  RH WIND       PRES   REMARKS
GRAND CANYON   PTSUNNY   61  24  24 SW23G30   29.90S
WILLIAMS       PTSUNNY   59  21  23 SW18G35   29.92S
PRESCOTT       PTSUNNY   68  19  15 SW10G24   29.90S
FLAGSTAFF      PTSUNNY   58  18  21 SW23G35   29.94S
PAYSON         MOSUNNY   68  21  17 S10G17    29.97S
PAGE           CLOUDY    64  30  27 N7        29.75F
$$

AZZ009>014-017-241800-
NORTHEAST ARIZONA

CITY           SKY/WX    TMP DP  RH WIND       PRES   REMARKS
WINSLOW        PTSUNNY   73  18  12 SW24G37   29.86S
SAINT JOHNS    SUNNY     71  15  11 W20G37    29.90F
WINDOW ROCK    PTSUNNY   64  18  17 SW24G33   29.93F
SHOW LOW       MOSUNNY   63  18  17 S33G43    29.95R
$$

AZZ540-542>544-546-548-241800-
GREATER PHOENIX AREA

CITY           SKY/WX    TMP DP  RH WIND       PRES   REMARKS
PHOENIX        MOSUNNY   84  26  12 VRB5      29.76R
BUCKEYE        SUNNY     82  25  12 SW12      29.77S
GLENDALE       MOSUNNY   82  30  15 CALM      29.78S
LUKE AFB       SUNNY     83  31  15 S12       29.76S
DEER VALLEY    SUNNY     82  24  12 SW9       29.78R
SCOTTSDALE     SUNNY     80  26  13 SE6       29.80R
MESA-FALCON    MOSUNNY  N/A N/A N/A S13       29.79R
MESA-GATEWAY   MOSUNNY   82  28  14 SW9       29.80R
CHANDLER       SUNNY     84  28  13 S12       29.78R
$$

AZZ539-553-241800-
SOUTHWEST MARICOPA COUNTY AND PINAL COUNTY

CITY           SKY/WX    TMP DP  RH WIND       PRES   REMARKS
CASA GRANDE    SUNNY     84  29  13 S16       29.80S
GILA BEND      SUNNY     85  29  13 SW10      29.76R
$$

AZZ503-504-507>509-241800-
SOUTHEAST ARIZONA

CITY           SKY/WX    TMP DP  RH WIND       PRES   REMARKS
TUCSON         SUNNY     85  22  10 S10G18    29.88F
DAVIS-MONTHAN  SUNNY     83  21  10 SW12      29.87F
RYAN FIELD     SUNNY     86  25  10 SW28G35   29.86S
NOGALES        SUNNY     80  24  12 S15G25    29.97R
SIERRA VISTA   SUNNY     77  14   9 S17       30.00R
DOUGLAS        SUNNY     80  16   9 SW20G25   29.97F
SAFFORD        SUNNY     80  20  10 NE7       29.87S
$$

AZZ532-241800-
SOUTHWEST ARIZONA

CITY           SKY/WX    TMP DP  RH WIND       PRES   REMARKS
YUMA           MOSUNNY   83  31  15 NW9       29.76R
$$

CAZ041-043-047-048-061-525>527-560>570-241800-
SOUTHERN CALIFORNIA

CITY           SKY/WX    TMP DP  RH WIND       PRES   REMARKS
DOWNTOWN L.A.  MOSUNNY   68  53  58 VRB3      29.94S
L.A. AIRPORT   PTSUNNY   65  55  70 W7        29.95R
SAN DIEGO      PTSUNNY   64  53  67 S13       29.97R
BURBANK        MOSUNNY   64  50  60 VRB5      29.93S
ONTARIO        CLOUDY    62  52  69 SW5       29.94R
RIVERSIDE      PTSUNNY   64  55  72 W6        29.95R
PALM SPRINGS   PTSUNNY   76  45  33 NW10      29.75S
EL CENTRO NAS  MOSUNNY   87  32  14 W28       29.75R
IMPERIAL       SUNNY     84  40  21 W18G25    29.72R
BLYTHE         MOSUNNY   80  32  17 SW5       29.74R
NEEDLES        CLOUDY    81  19  10 SW7       29.71S
$$

NVZ020-UTZ003-241800-
SOUTHERN NEVADA-UTAH

CITY           SKY/WX    TMP DP  RH WIND       PRES   REMARKS
LAS VEGAS      PTSUNNY   72  26  18 VRB6      29.70S
SALT LAKE CITY LGT RAIN  53  39  59 W6        29.69S
$$

NMZ009-TXZ055-241800-
NEW MEXICO-WEST TEXAS

CITY           SKY/WX    TMP DP  RH WIND       PRES   REMARKS
ALBUQUERQUE    PTSUNNY   70  22  16 W18G24    29.89F
EL PASO        MOSUNNY   82  17   9 SW23G30   29.90F
$$


........................KEY........................
SKY/WX - SKY CONDITION/WEATHER
TMP    - TEMPERATURE IN FAHRENHEIT
DP     - DEW POINT IN FAHRENHEIT
RH     - RELATIVE HUMIDITY IN PERCENT
WIND   - DIRECTION AND SPEED IN MILES PER HOUR (MPH)
VRB    - VARIABLE WIND DIRECTION
PRES   - MEAN SEA LEVEL PRESSURE IN INCHES OF MERCURY
         F - FALLING PRESSURE   R - RISING PRESSURE
         S - STEADY PRESSURE
VSB    - VISIBILITY IN MILES
HX     - HEAT INDEX IN FAHRENHEIT
WCI    - WIND CHILL INDEX IN FAHRENHEIT
TC     - TEMPERATURE IN CELSIUS WHICH IS ALSO KNOWN AS
         TEMPERATURE IN CENTIGRADE
AFB    - AIR FORCE BASE
         LUKE AFB IS LUKE AIR FORCE BASE
         DAVIS-MONTHAN IS DAVIS-MONTHAN AIR FORCE BASE
NAS    - NAVAL AIR STATION
         EL CENTRO NAS IS EL CENTRO NAVAL AIR STATION
N/A    - NOT AVAILABLE





USA.gov is the U.S. government's official web portal to all federal, state and local government web resources and services.